星链-5375 (STARLINK-5375 )

导读

STARLINK-5375是美国太空探索技术公司星链卫星互联网项目的卫星,于北京时间2023年3月29日8点发射,属于星链低轨互联网星座组网卫星,用于提供全球覆盖的高速互联网服务,进一步补充完善星链星座的轨道布局,提升星座服务覆盖能力。

Basic Information
目录编号:
56140
目录名称:
STARLINK-5375
国际标识:
2023-046BA
轨道中心:
EARTH
卫星名称:
星链-5375
卫星全名:
星链-5375 (STARLINK-5375 )
卫星状态:
在轨 (已飞行1176 天)
发射日期:
2023-03-29 UTC
国别 :
美国 (US)
星等 :
--
Orbit Information
数据来源 国际轨道数据
星历时间: 2026-06-17T00:06:14+0800
18小时前
查看轨道信息
半长轴: 6861.191km
偏心率: 0.0001304
轨道倾角: 43.006°
近地点辐角 264.598°
升交点赤经 308.366°
平近点角 95.472°
近地点: 482.159km
远地点: 483.949km
周期: 94.267分钟
每日圈数: 15.275785
Detailed Information
固有亮度:
5
最大亮度:
2.5
卫星平台:
Starlink v1.5
覆盖范围:
全球
运营商:
太空探索技术公司
运营商所在国:
美国
制造商(研发单位):
太空探索技术公司
制造商所在国:
美国
使用方式:
暂无
Satellite Introduction
星链(Starlink)计划是由太空探索技术公司(SpaceX)提出的一个巨型低轨卫星互联网星座项目,计划在2019年至2024年间在太空搭建由约1.2万颗卫星组成的“星链”网络,其中1584颗将部署在地球上空550千米处的近地轨道,并从2020年开始工作。该卫星仍在工作。
2D Orbit Map
3D Orbit Map
Orbit Altitude Analysis Chart
Orbit Inclination Analysis Chart
Orbit Comprehensive Analysis Chart
View Comprehensive Chart